Volver al catálogo

STARLINK-38115

ActivoComunicacionesSSO
NORAD 100111·PAYLOAD·🇺🇸 United States

Lanzado Jul 21, 2026 desde Vandenberg Space Force Base

Loading…

Próximos Pases (próximas 24 horas)

TLE

ActualizadoSource: Space-Track

Época: Sep 14, 2026, 14:51 UTC

1 A0111U 26166L   26257.61878474  .00200784  00000-0  13157-2 0  9991
2 A0111  97.2824 275.6174 0002236  64.7819 295.3678 15.75188017  8671

Sigue STARLINK-38115 en tiempo real con AllMySat

Download on the App Store